Canadian, TX

2:36 AM CDT on March 30, 2017 (GMT -0500)
Hemphill County

Weather History for KHHF - January, 2014

Change the Weather History Date:

Monday, January 20, 2014

  Actual Average (KPPA) Record (KPPA)
Temperature  
Mean Temperature 40 °F -  
Max Temperature 58 °F 47 °F 77 °F (1986)
Min Temperature 23 °F 23 °F -1 °F (1984)
Degree Days  
Heating Degree Days 24    
Moisture  
Dew Point 15 °F    
Average Humidity 36    
Maximum Humidity 62    
Minimum Humidity 19    
Precipitation  
Precipitation 0.00 in - - ()
Sea Level Pressure  
Sea Level Pressure 30.09 in    
Wind  
Wind Speed 5 mph (North)    
Max Wind Speed 25 mph    
Max Gust Speed 32 mph    
Visibility 10 miles    
Events      
Averages and records for this station are not official NWS values.
T = Trace of Precipitation, MM = Missing Value Source: NWS Daily Summary

Daily Weather History Graph

Daily Weather History Graph

Search for Another Location

Airport or City:

Trip Planner

Search our weather history database for the weather conditions in past years. The results will help you decide how hot, cold, wet, or windy it might be!

Date:

Astronomy

Jan. 20, 2014 Rise Set
Actual Time 7:49 AM CST 5:56 PM CST
Civil Twilight 7:21 AM CST 6:23 PM CST
Nautical Twilight 6:50 AM CST 6:55 PM CST
Astronomical Twilight 6:20 AM CST 7:25 PM CST
Moon 10:22 PM CST (1/20) 9:59 AM CST (1/20)
Length of Visible Light 11h 02m
Length of Day
10h 06m
Waning Gibbous, 82% of the Moon is Illuminated
Jan 20
Waning Gibbous
Jan 23
Last Quarter
Jan 30
New
Feb 6
First Quarter
Feb 14
Full

Hourly Weather History & Observations

Time (CST) Temp. Windchill Dew Point Humidity Pressure Visibility Wind Dir Wind Speed Gust Speed Precip Events Conditions
12:15 AM 34.7 °F - 13.1 °F 41% 29.88 in 10.0 mi Calm Calm - N/A   Clear
12:35 AM 35.6 °F - 13.5 °F 40% 29.88 in 10.0 mi Calm Calm - N/A   Clear
12:55 AM 36.0 °F - 13.5 °F 40% 29.87 in 10.0 mi Calm Calm - N/A   Clear
1:15 AM 35.6 °F - 13.6 °F 41% 29.87 in 10.0 mi Calm Calm - N/A   Clear
1:35 AM 33.1 °F - 14.0 °F 46% 29.88 in 10.0 mi Calm Calm - N/A   Clear
1:55 AM 31.5 °F - 13.8 °F 48% 29.87 in 10.0 mi Calm Calm - N/A   Clear
2:15 AM 29.7 °F - 12.2 °F 48% 29.86 in 10.0 mi Calm Calm - N/A   Clear
2:35 AM 30.6 °F - 12.7 °F 48% 29.87 in 10.0 mi Calm Calm - N/A   Clear
2:55 AM 27.1 °F - 12.4 °F 54% 29.87 in 10.0 mi Calm Calm - N/A   Clear
3:15 AM 28.8 °F - 13.3 °F 52% 29.87 in 10.0 mi Calm Calm - N/A   Clear
3:35 AM 28.9 °F - 13.3 °F 52% 29.87 in 10.0 mi Calm Calm - N/A   Clear
3:55 AM 27.1 °F - 13.1 °F 56% 29.87 in 10.0 mi Calm Calm - N/A   Clear
4:15 AM 23.9 °F - 12.2 °F 61% 29.88 in 10.0 mi Calm Calm - N/A   Clear
4:35 AM 26.8 °F - 13.8 °F 58% 29.88 in 10.0 mi Calm Calm - N/A   Clear
4:55 AM 28.9 °F - 14.5 °F 55% 29.88 in 10.0 mi Calm Calm - N/A   Clear
5:15 AM 28.8 °F - 14.5 °F 55% 29.88 in 10.0 mi Calm Calm - N/A   Clear
5:35 AM 24.1 °F - 12.4 °F 61% 29.89 in 10.0 mi Calm Calm - N/A   Clear
5:55 AM 23.9 °F - 12.4 °F 62% 29.89 in 10.0 mi Calm Calm - N/A   Clear
6:15 AM 24.3 °F 18.4 °F 12.9 °F 62% 29.90 in 10.0 mi SSW 4.6 mph - N/A   Clear
6:35 AM 24.1 °F - 12.6 °F 62% 29.91 in 10.0 mi Calm Calm - N/A   Clear
6:55 AM 27.9 °F 24.0 °F 14.7 °F 58% 29.91 in 10.0 mi SSW 3.5 mph - N/A   Clear
7:15 AM 23.9 °F - 12.6 °F 62% 29.94 in 10.0 mi Calm Calm - N/A   Clear
7:35 AM 25.3 °F - 14.0 °F 62% 29.95 in 10.0 mi Calm Calm - N/A   Clear
7:55 AM 26.2 °F - 13.8 °F 59% 29.96 in 10.0 mi Calm Calm - N/A   Clear
8:15 AM 34.9 °F 30.8 °F 14.4 °F 43% 29.97 in 10.0 mi WSW 4.6 mph - N/A   Clear
8:35 AM 37.0 °F 33.3 °F 14.2 °F 39% 29.98 in 10.0 mi West 4.6 mph - N/A   Clear
8:55 AM 41.4 °F 38.4 °F 14.9 °F 34% 29.99 in 10.0 mi WNW 4.6 mph - N/A   Clear
9:15 AM 44.6 °F 41.4 °F 14.5 °F 30% 29.99 in 10.0 mi NW 5.8 mph - N/A   Clear
9:35 AM 46.9 °F - 14.7 °F 27% 30.00 in 10.0 mi NW 4.6 mph - N/A   Clear
9:55 AM 50.0 °F - 14.4 °F 24% 30.01 in 10.0 mi WNW 3.5 mph - N/A   Clear
10:15 AM 52.9 °F - 14.4 °F 22% 30.03 in 10.0 mi North 11.5 mph 18.4 mph N/A   Clear
10:35 AM 54.9 °F - 14.0 °F 20% 30.04 in 10.0 mi North 15.0 mph 23.0 mph N/A   Clear
10:55 AM 55.6 °F - 14.2 °F 20% 30.06 in 10.0 mi North 19.6 mph - N/A   Clear
11:15 AM 54.9 °F - 15.6 °F 21% 30.07 in 10.0 mi North 20.7 mph 25.3 mph N/A   Clear
11:35 AM 56.3 °F - 16.5 °F 21% 30.08 in 10.0 mi North 15.0 mph - N/A   Clear
11:55 AM 57.2 °F - 17.1 °F 21% 30.09 in 10.0 mi North 13.8 mph 18.4 mph N/A   Clear
12:15 PM 58.3 °F - 16.7 °F 20% 30.09 in 10.0 mi North 16.1 mph 24.2 mph N/A   Clear
12:35 PM 57.7 °F - 16.7 °F 20% 30.09 in 10.0 mi North 17.3 mph 24.2 mph N/A   Clear
12:55 PM 57.4 °F - 17.1 °F 21% 30.09 in 10.0 mi North 17.3 mph 25.3 mph N/A   Clear
1:15 PM 57.6 °F - 16.2 °F 20% 30.09 in 10.0 mi NNE 25.3 mph 32.2 mph N/A   Clear
1:35 PM 58.1 °F - 17.4 °F 20% 30.09 in 10.0 mi NNE 20.7 mph 28.8 mph N/A   Clear
1:55 PM 58.1 °F - 18.3 °F 21% 30.09 in 10.0 mi North 23.0 mph 29.9 mph N/A   Clear
2:15 PM 58.3 °F - 18.3 °F 21% 30.10 in 10.0 mi NNE 23.0 mph 29.9 mph N/A   Clear
2:35 PM 58.8 °F - 18.1 °F 21% 30.11 in 10.0 mi North 19.6 mph 31.1 mph N/A   Clear
2:55 PM 58.5 °F - 17.2 °F 20% 30.13 in 10.0 mi North 23.0 mph 32.2 mph N/A   Clear
3:15 PM 58.3 °F - 16.7 °F 20% 30.15 in 10.0 mi North 17.3 mph 28.8 mph N/A   Clear
3:35 PM 57.6 °F - 17.6 °F 21% 30.16 in 10.0 mi North 16.1 mph 23.0 mph N/A   Clear
3:55 PM 57.4 °F - 15.8 °F 20% 30.16 in 10.0 mi North 21.9 mph 28.8 mph N/A   Clear
4:15 PM 57.2 °F - 14.7 °F 19% 30.18 in 10.0 mi North 17.3 mph 27.6 mph N/A   Clear
4:35 PM 56.3 °F - 15.8 °F 20% 30.19 in 10.0 mi North 19.6 mph 26.5 mph N/A   Clear
4:55 PM 56.3 °F - 15.8 °F 20% 30.19 in 10.0 mi North 15.0 mph 21.9 mph N/A   Clear
5:15 PM 56.1 °F - 14.7 °F 20% 30.21 in 10.0 mi North 19.6 mph 26.5 mph N/A   Clear
5:35 PM 54.9 °F - 15.3 °F 21% 30.22 in 10.0 mi North 15.0 mph 21.9 mph N/A   Clear
5:55 PM 53.1 °F - 15.8 °F 23% 30.23 in 10.0 mi North 8.1 mph - N/A   Clear
6:15 PM 51.1 °F - 16.5 °F 25% 30.25 in 10.0 mi North 6.9 mph - N/A   Clear
6:35 PM 48.6 °F - 16.5 °F 28% 30.26 in 10.0 mi North 4.6 mph - N/A   Clear
6:55 PM 47.7 °F - 16.5 °F 29% 30.27 in 10.0 mi North 4.6 mph - N/A   Clear
7:15 PM 44.8 °F - 16.0 °F 31% 30.28 in 10.0 mi Calm Calm - N/A   Clear
7:35 PM 44.6 °F - 16.5 °F 32% 30.29 in 10.0 mi Calm Calm - N/A   Clear
7:55 PM 44.2 °F - 16.7 °F 33% 30.31 in 10.0 mi Calm Calm - N/A   Clear
8:15 PM 42.3 °F - 16.7 °F 36% 30.32 in 10.0 mi Calm Calm - N/A   Clear
8:35 PM 42.3 °F - 16.5 °F 35% 30.32 in 10.0 mi Calm Calm - N/A   Clear
8:55 PM 39.7 °F - 15.8 °F 38% 30.33 in 10.0 mi Calm Calm - N/A   Clear
9:15 PM 39.0 °F - 15.4 °F 38% 30.33 in 10.0 mi Calm Calm - N/A   Clear
9:35 PM 37.9 °F 34.4 °F 15.3 °F 40% 30.34 in 10.0 mi NNW 4.6 mph - N/A   Clear
9:55 PM 39.2 °F 35.0 °F 14.9 °F 37% 30.35 in 10.0 mi NNW 5.8 mph - N/A   Clear
10:15 PM 38.3 °F 33.9 °F 14.7 °F 38% 30.36 in 10.0 mi NNW 5.8 mph - N/A   Clear
10:35 PM 39.2 °F - 14.7 °F 37% 30.38 in 10.0 mi Calm Calm - N/A   Clear
10:55 PM 37.2 °F - 14.2 °F 39% 30.38 in 7.0 mi Calm Calm - N/A   Clear
11:15 PM 37.4 °F - 14.0 °F 38% 30.40 in 7.0 mi Calm Calm - N/A   Clear
11:35 PM 36.9 °F 30.7 °F 14.2 °F 40% 30.40 in 7.0 mi NNW 8.1 mph - N/A   Clear
11:55 PM 37.4 °F 30.8 °F 14.4 °F 39% 30.41 in 5.0 mi NW 9.2 mph - N/A   Haze